When you browse on this site, cookies collect data to enhance your experience and personalize the content and advertising you see.
Visit our Privacy Policy to learn more. By continuing to use the site, you agree to this use of cookies and data.
  • In Austria
  • List of Countries
  • For 7 days
  • Water Temperature
  • Satellite Maps
  • Weather Map
  • News
  • Weather Widgets
  • user-avatar
    Login

    Hourly Weather Parakou

    Today, 18 January, Friday

    Time Temperature Precipitation Wind Pressure Humidity
    00:00 +29°C° 0 mm 1 mps 727 mmHg 12%
    01:00 +29°C° 0 mm 1 mps 727 mmHg 12%
    02:00 +28°C° 0 mm 1 mps 727 mmHg 12%
    03:00 +28°C° 0 mm 1 mps 727 mmHg 12%
    04:00 +27°C° 0 mm 1 mps 727 mmHg 17%
    05:00 +26°C° 0 mm 1 mps 727 mmHg 22%
    06:00 +26°C° 0 mm 1 mps 727 mmHg 31%
    07:00 +28°C° 0 mm 1 mps 728 mmHg 37%
    08:00 +30°C° 0 mm 1 mps 728 mmHg 42%
    09:00 +32°C° 0 mm 1 mps 728 mmHg 47%
    10:00 +34°C° 0 mm 1 mps 728 mmHg 37%
    11:00 +37°C° 0 mm 2 mps 728 mmHg 27%
    12:00 +40°C° 0 mm 2 mps 728 mmHg 17%
    13:00 +40°C° 0 mm 2 mps 727 mmHg 15%
    14:00 +41°C° 0 mm 2 mps 726 mmHg 13%
    15:00 +41°C° 0 mm 2 mps 726 mmHg 12%
    16:00 +39°C° 0 mm 1 mps 726 mmHg 12%
    17:00 +37°C° 0 mm 1 mps 726 mmHg 13%
    18:00 +35°C° 0 mm 1 mps 726 mmHg 14%
    19:00 +34°C° 0 mm 1 mps 726 mmHg 14%
    20:00 +34°C° 0 mm 1 mps 727 mmHg 15%
    21:00 +33°C° 0 mm 1 mps 727 mmHg 15%
    22:00 +32°C° 0 mm 1 mps 727 mmHg 18%
    23:00 +31°C° 0 mm 2 mps 727 mmHg 20%

    Tomorrow, 19 January, Saturday

    Time Temperature Precipitation Wind Pressure Humidity
    00:00 +31°C° 0 mm 2 mps 727 mmHg 22%
    01:00 +30°C° 0 mm 2 mps 727 mmHg 38%
    02:00 +29°C° 0 mm 3 mps 727 mmHg 53%
    03:00 +29°C° 0 mm 3 mps 727 mmHg 68%
    04:00 +28°C° 0 mm 3 mps 727 mmHg 69%
    05:00 +28°C° 0 mm 3 mps 727 mmHg 70%
    06:00 +27°C° 0 mm 3 mps 727 mmHg 70%
    07:00 +29°C° 0 mm 3 mps 728 mmHg 65%
    08:00 +30°C° 0 mm 3 mps 729 mmHg 61%
    09:00 +31°C° 0 mm 3 mps 729 mmHg 56%
    10:00 +34°C° 0 mm 2 mps 729 mmHg 49%
    11:00 +36°C° 0 mm 2 mps 728 mmHg 41%
    12:00 +38°C° 0 mm 2 mps 728 mmHg 34%
    13:00 +39°C° 0 mm 2 mps 727 mmHg 30%
    14:00 +40°C° 0 mm 2 mps 727 mmHg 25%
    15:00 +40°C° 0 mm 1 mps 726 mmHg 21%
    16:00 +39°C° 0 mm 1 mps 726 mmHg 23%
    17:00 +37°C° 0 mm 1 mps 726 mmHg 24%
    18:00 +36°C° 0 mm 1 mps 726 mmHg 25%
    19:00 +35°C° 0 mm 1 mps 727 mmHg 27%
    20:00 +34°C° 0 mm 1 mps 727 mmHg 28%
    21:00 +34°C° 0 mm 1 mps 728 mmHg 30%
    22:00 +34°C° 0 mm 2 mps 728 mmHg 32%
    23:00 +34°C° 0 mm 2 mps 728 mmHg 34%

    Day after tomorrow, 20 January, Sunday

    Time Temperature Precipitation Wind Pressure Humidity
    00:00 +34°C° 0 mm 3 mps 728 mmHg 36%
    01:00 +33°C° 0.3 mm 3 mps 728 mmHg 46%
    02:00 +30°C° 0.3 mm 3 mps 727 mmHg 57%
    03:00 +29°C° 0.3 mm 3 mps 727 mmHg 67%
    04:00 +28°C° 1.1 mm 2 mps 727 mmHg 69%
    05:00 +28°C° 1.1 mm 1 mps 728 mmHg 70%
    06:00 +27°C° 1.1 mm 1 mps 728 mmHg 72%
    07:00 +29°C° 0.3 mm 1 mps 729 mmHg 64%
    08:00 +31°C° 0.3 mm 2 mps 729 mmHg 55%
    09:00 +33°C° 0.3 mm 3 mps 730 mmHg 47%
    10:00 +35°C° 0 mm 2 mps 730 mmHg 42%
    11:00 +37°C° 0 mm 2 mps 729 mmHg 36%
    12:00 +37°C° 0 mm 1 mps 728 mmHg 31%
    13:00 +37°C° 0 mm 1 mps 728 mmHg 31%
    14:00 +37°C° 0 mm 1 mps 727 mmHg 30%
    15:00 +37°C° 0 mm 1 mps 726 mmHg 29%
    16:00 +37°C° 0 mm 1 mps 726 mmHg 30%
    17:00 +36°C° 0 mm 1 mps 726 mmHg 32%
    18:00 +36°C° 0 mm 1 mps 727 mmHg 33%
    19:00 +35°C° 0 mm 1 mps 727 mmHg 35%
    20:00 +34°C° 0 mm 1 mps 728 mmHg 37%
    21:00 +33°C° 0 mm 1 mps 728 mmHg 40%
    22:00 +33°C° 0 mm 1 mps 728 mmHg 42%
    23:00 +32°C° 0 mm 1 mps 728 mmHg 44%

    21 January, Monday

    Time Temperature Precipitation Wind Pressure Humidity
    00:00 +32°C° 0 mm 1 mps 728 mmHg 47%
    01:00 +31°C° 0 mm 1 mps 728 mmHg 46%
    02:00 +30°C° 0 mm 1 mps 727 mmHg 45%
    03:00 +30°C° 0 mm 2 mps 727 mmHg 44%
    04:00 +29°C° 0 mm 1 mps 727 mmHg 39%
    05:00 +28°C° 0 mm 1 mps 728 mmHg 34%
    06:00 +28°C° 0 mm 1 mps 728 mmHg 29%
    07:00 +29°C° 0 mm 1 mps 729 mmHg 24%
    08:00 +31°C° 0 mm 1 mps 729 mmHg 18%
    09:00 +33°C° 0 mm 1 mps 730 mmHg 13%
    10:00 +36°C° 0 mm 2 mps 729 mmHg 12%
    11:00 +37°C° 0 mm 2 mps 729 mmHg 10%
    12:00 +39°C° 0 mm 2 mps 728 mmHg 9%
    13:00 +40°C° 0 mm 2 mps 727 mmHg 9%
    14:00 +40°C° 0 mm 1 mps 727 mmHg 9%
    15:00 +41°C° 0 mm 1 mps 726 mmHg 9%
    16:00 +39°C° 0 mm 1 mps 726 mmHg 9%
    17:00 +37°C° 0 mm 1 mps 726 mmHg 10%
    18:00 +36°C° 0 mm 1 mps 726 mmHg 11%
    19:00 +35°C° 0 mm 1 mps 727 mmHg 11%
    20:00 +34°C° 0 mm 1 mps 727 mmHg 12%
    21:00 +33°C° 0 mm 1 mps 728 mmHg 13%
    22:00 +32°C° 0 mm 1 mps 728 mmHg 13%
    23:00 +31°C° 0 mm 1 mps 727 mmHg 14%

    22 January, Tuesday

    Time Temperature Precipitation Wind Pressure Humidity
    00:00 +31°C° 0 mm 1 mps 727 mmHg 14%
    01:00 +30°C° 0 mm 1 mps 727 mmHg 15%
    02:00 +29°C° 0 mm 1 mps 727 mmHg 15%
    03:00 +26°C° 0 mm 0 mps 726 mmHg 16%
    04:00 +26°C° 0 mm 0 mps 727 mmHg 21%
    05:00 +27°C° 0 mm 1 mps 727 mmHg 25%
    06:00 +27°C° 0 mm 1 mps 728 mmHg 30%
    07:00 +29°C° 0 mm 1 mps 728 mmHg 27%
    08:00 +31°C° 0 mm 1 mps 729 mmHg 24%
    09:00 +33°C° 0 mm 1 mps 730 mmHg 21%
    10:00 +35°C° 0 mm 1 mps 729 mmHg 17%
    11:00 +38°C° 0 mm 2 mps 729 mmHg 12%
    12:00 +39°C° 0 mm 2 mps 728 mmHg 8%
    13:00 +40°C° 0 mm 2 mps 727 mmHg 7%
    14:00 +40°C° 0 mm 2 mps 726 mmHg 7%
    15:00 +41°C° 0 mm 1 mps 725 mmHg 6%
    16:00 +39°C° 0 mm 1 mps 726 mmHg 7%
    17:00 +37°C° 0 mm 1 mps 726 mmHg 7%
    18:00 +35°C° 0 mm 1 mps 726 mmHg 8%
    19:00 +35°C° 0 mm 1 mps 726 mmHg 8%
    20:00 +34°C° 0 mm 1 mps 727 mmHg 9%
    21:00 +33°C° 0 mm 1 mps 727 mmHg 9%
    22:00 +32°C° 0 mm 1 mps 727 mmHg 10%
    23:00 +31°C° 0 mm 1 mps 727 mmHg 10%

    23 January, Wednesday

    Time Temperature Precipitation Wind Pressure Humidity
    00:00 +31°C° 0 mm 1 mps 727 mmHg 11%
    01:00 +30°C° 0 mm 1 mps 726 mmHg 11%
    02:00 +29°C° 0 mm 1 mps 726 mmHg 11%
    03:00 +28°C° 0 mm 1 mps 726 mmHg 12%
    04:00 +26°C° 0 mm 0 mps 726 mmHg 16%
    05:00 +25°C° 0 mm 0 mps 727 mmHg 21%
    06:00 +25°C° 0 mm 0 mps 727 mmHg 26%
    07:00 +27°C° 0 mm 0 mps 728 mmHg 27%
    08:00 +29°C° 0 mm 0 mps 728 mmHg 29%
    09:00 +33°C° 0 mm 1 mps 729 mmHg 31%
    10:00 +35°C° 0 mm 1 mps 729 mmHg 25%
    11:00 +37°C° 0 mm 1 mps 728 mmHg 19%
    12:00 +41°C° 0 mm 1 mps 728 mmHg 13%
    13:00 +41°C° 0 mm 1 mps 727 mmHg 12%
    14:00 +39°C° 0 mm 0 mps 726 mmHg 11%
    15:00 +39°C° 0 mm 0 mps 725 mmHg 10%
    16:00 +37°C° 0 mm 0 mps 725 mmHg 10%
    17:00 +36°C° 0 mm 0 mps 725 mmHg 11%
    18:00 +34°C° 0 mm 0 mps 725 mmHg 11%
    19:00 +35°C° 0 mm 1 mps 726 mmHg 11%
    20:00 +34°C° 0 mm 1 mps 726 mmHg 11%
    21:00 +34°C° 0 mm 1 mps 727 mmHg 10%
    22:00 +33°C° 0 mm 1 mps 727 mmHg 10%
    23:00 +32°C° 0 mm 1 mps 727 mmHg 10%
    Show more